SARAL

Last updated on Sun Dec 14 2025 00:02:32 GMT+0000 (Coordinated Universal Time)

1 39086U 13009A 25347.28626607 .00000213 00000+0 94304-4 0 9996 2 39086 98.5503 171.2096 0002878 107.6803 252.4695 14.32757372668985
UTC large
Height (km)
Speed (km/s)
/
Latitude / Longitude
Inclination (degrees)
Orbital Period (minutes)
Azimuth
Elevation
Range (km)
Doppler Factor

Next 0 passes for location: London (51.5072 / 0.1276)

Sorry there are no passes over London.